| time (UTC) | temp C | wind direction | speed KPH | gust KPH | rain 1hr cm | rain 24hr cm | rain mn cm | humidity % | barometer mb |
| 20260510045047 | 24 | 51 | 3.2 | 3.2 | 0.00 | 0.05 | 0.05 | 77 | 1010.2 |
| 20260510044544 | 25 | 147 | 0.0 | 3.2 | 0.00 | 0.05 | 0.05 | 76 | 1010.4 |
| 20260510044042 | 25 | 92 | 3.2 | 3.2 | 0.00 | 0.05 | 0.05 | 77 | 1010.3 |
| 20260510043537 | 25 | 89 | 0.0 | 1.6 | 0.00 | 0.05 | 0.05 | 76 | 1010.4 |
| 20260510043033 | 25 | 66 | 0.0 | 3.2 | 0.00 | 0.05 | 0.05 | 76 | 1010.4 |
| 20260510042527 | 25 | 33 | 1.6 | 3.2 | 0.00 | 0.05 | 0.05 | 76 | 1010.4 |
| 20260510042027 | 25 | 127 | 1.6 | 3.2 | 0.00 | 0.05 | 0.05 | 75 | 1010.4 |
| 20260510041525 | 25 | 130 | 0.0 | 1.6 | 0.00 | 0.05 | 0.05 | 75 | 1010.4 |
| 20260510041022 | 25 | 108 | 0.0 | 3.2 | 0.00 | 0.05 | 0.05 | 75 | 1010.4 |
| 20260510040519 | 25 | 145 | 0.0 | 4.8 | 0.00 | 0.05 | 0.05 | 75 | 1010.3 |
| 20260510040015 | 25 | 135 | 3.2 | 3.2 | 0.00 | 0.05 | 0.05 | 75 | 1010.3 |
| 20260510035512 | 25 | 137 | 0.0 | 4.8 | 0.00 | 0.05 | 0.05 | 75 | 1010.4 |
| 20260510035010 | 25 | 127 | 3.2 | 4.8 | 0.00 | 0.05 | 0.05 | 75 | 1010.3 |
| 20260510034510 | 25 | 126 | 1.6 | 4.8 | 0.00 | 0.05 | 0.05 | 75 | 1010.3 |
| 20260510034006 | 26 | 136 | 4.8 | 4.8 | 0.00 | 0.05 | 0.05 | 75 | 1010.3 |
| 20260510033502 | 25 | 138 | 0.0 | 6.4 | 0.00 | 0.05 | 0.05 | 75 | 1010.1 |
| 20260510033000 | 26 | 57 | 0.0 | 3.2 | 0.00 | 0.05 | 0.05 | 75 | 1010.2 |
| 20260510032457 | 26 | 124 | 3.2 | 4.8 | 0.00 | 0.05 | 0.05 | 75 | 1010.0 |
| 20260510031956 | 26 | 126 | 6.4 | 6.4 | 0.00 | 0.05 | 0.05 | 75 | 1010.0 |
| 20260510031452 | 26 | 163 | 1.6 | 6.4 | 0.00 | 0.05 | 0.05 | 75 | 1009.9 |
| 20260510030948 | 26 | 141 | 4.8 | 6.4 | 0.00 | 0.05 | 0.05 | 75 | 1009.7 |
| 20260510030443 | 26 | 202 | 0.0 | 4.8 | 0.00 | 0.05 | 0.05 | 74 | 1009.8 |
| 20260510025941 | 26 | 127 | 0.0 | 3.2 | 0.00 | 0.05 | 0.05 | 73 | 1009.8 |
| 20260510025438 | 26 | 167 | 3.2 | 6.4 | 0.00 | 0.05 | 0.05 | 73 | 1009.5 |
| 20260510024936 | 26 | 149 | 1.6 | 4.8 | 0.00 | 0.05 | 0.05 | 72 | 1009.6 |
| 20260510024432 | 27 | 134 | 3.2 | 6.4 | 0.00 | 0.05 | 0.05 | 72 | 1009.6 |
| 20260510023928 | 27 | 161 | 0.0 | 8.0 | 0.00 | 0.05 | 0.05 | 71 | 1009.3 |
| 20260510023425 | 26 | 148 | 3.2 | 6.4 | 0.00 | 0.05 | 0.05 | 71 | 1009.5 |
| 20260510022922 | 27 | 181 | 0.0 | 3.2 | 0.00 | 0.05 | 0.05 | 71 | 1009.2 |
| 20260510022421 | 26 | 146 | 1.6 | 4.8 | 0.00 | 0.05 | 0.05 | 71 | 1009.1 |
| 20260510021920 | 27 | 185 | 1.6 | 4.8 | 0.00 | 0.05 | 0.05 | 70 | 1009.1 |
| 20260510021418 | 27 | 139 | 4.8 | 4.8 | 0.00 | 0.05 | 0.05 | 69 | 1009.1 |
| 20260510020915 | 27 | 119 | 3.2 | 4.8 | 0.00 | 0.05 | 0.05 | 69 | 1008.9 |
| 20260510020410 | 27 | 104 | 1.6 | 6.4 | 0.00 | 0.05 | 0.05 | 68 | 1009.0 |
| 20260510015906 | 27 | 196 | 0.0 | 4.8 | 0.00 | 0.05 | 0.05 | 67 | 1009.0 |
| 20260510015401 | 27 | 152 | 1.6 | 8.0 | 0.00 | 0.05 | 0.05 | 66 | 1008.8 |
| 20260510014857 | 27 | 144 | 3.2 | 3.2 | 0.00 | 0.05 | 0.05 | 65 | 1008.9 |
| 20260510014354 | 27 | 156 | 1.6 | 4.8 | 0.00 | 0.05 | 0.05 | 64 | 1008.8 |
| 20260510013851 | 27 | 134 | 3.2 | 3.2 | 0.00 | 0.05 | 0.05 | 63 | 1008.8 |
| 20260510013346 | 27 | 142 | 1.6 | 4.8 | 0.00 | 0.05 | 0.05 | 62 | 1008.6 |
| 20260510012841 | 28 | 146 | 3.2 | 4.8 | 0.00 | 0.05 | 0.05 | 61 | 1008.6 |
| 20260510012341 | 28 | 187 | 0.0 | 8.0 | 0.00 | 0.05 | 0.05 | 60 | 1008.5 |
| 20260510011836 | 28 | 146 | 1.6 | 4.8 | 0.00 | 0.05 | 0.05 | 60 | 1008.7 |
| 20260510011332 | 28 | 153 | 3.2 | 6.4 | 0.00 | 0.05 | 0.05 | 59 | 1008.5 |
| 20260510010828 | 28 | 148 | 4.8 | 4.8 | 0.00 | 0.05 | 0.05 | 58 | 1008.5 |
| 20260510010326 | 28 | 137 | 1.6 | 6.4 | 0.00 | 0.05 | 0.05 | 57 | 1008.3 |
| 20260510005822 | 28 | 164 | 0.0 | 6.4 | 0.00 | 0.05 | 0.05 | 57 | 1008.4 |
| 20260510005318 | 28 | 118 | 1.6 | 6.4 | 0.00 | 0.05 | 0.05 | 55 | 1008.2 |
| 20260510004817 | 29 | 144 | 3.2 | 4.8 | 0.00 | 0.05 | 0.05 | 54 | 1008.2 |
| 20260510004314 | 29 | 125 | 3.2 | 8.0 | 0.00 | 0.05 | 0.05 | 53 | 1008.2 |
| 20260510003811 | 29 | 174 | 1.6 | 6.4 | 0.00 | 0.05 | 0.05 | 53 | 1008.2 |
| 20260510003308 | 30 | 89 | 0.0 | 6.4 | 0.00 | 0.05 | 0.05 | 52 | 1008.1 |
| 20260510002807 | 30 | 152 | 9.7 | 9.7 | 0.00 | 0.05 | 0.05 | 51 | 1008.1 |
| 20260510002306 | 30 | 147 | 4.8 | 8.0 | 0.00 | 0.05 | 0.05 | 50 | 1008.1 |
| 20260510001800 | 30 | 93 | 1.6 | 6.4 | 0.00 | 0.05 | 0.05 | 51 | 1008.0 |
| 20260510001259 | 30 | 197 | 1.6 | 6.4 | 0.00 | 0.05 | 0.05 | 49 | 1008.0 |
| 20260510000754 | 30 | 174 | 1.6 | 4.8 | 0.00 | 0.05 | 0.05 | 48 | 1007.9 |
| 20260510000252 | 30 | 140 | 1.6 | 3.2 | 0.00 | 0.05 | 0.05 | 46 | 1008.0 |
| 20260509235749 | 30 | 150 | 0.0 | 6.4 | 0.00 | 0.05 | 0.05 | 46 | 1007.8 |
| 20260509235245 | 31 | 150 | 3.2 | 4.8 | 0.00 | 0.05 | 0.05 | 46 | 1007.9 |
| 20260509234741 | 31 | 173 | 0.0 | 3.2 | 0.00 | 0.05 | 0.05 | 46 | 1007.9 |
| 20260509234238 | 31 | 61 | 0.0 | 3.2 | 0.00 | 0.05 | 0.05 | 45 | 1007.7 |
| 20260509233736 | 31 | 191 | 3.2 | 6.4 | 0.00 | 0.05 | 0.05 | 44 | 1007.7 |
| 20260509233234 | 31 | 84 | 0.0 | 3.2 | 0.00 | 0.05 | 0.05 | 44 | 1007.8 |
| 20260509232730 | 31 | 154 | 0.0 | 3.2 | 0.00 | 0.05 | 0.05 | 45 | 1007.7 |
| 20260509232227 | 31 | 136 | 3.2 | 6.4 | 0.00 | 0.05 | 0.05 | 45 | 1007.7 |
| 20260509231723 | 31 | 68 | 3.2 | 4.8 | 0.00 | 0.05 | 0.05 | 44 | 1007.5 |
| 20260509231221 | 32 | 103 | 0.0 | 3.2 | 0.00 | 0.05 | 0.05 | 44 | 1007.7 |
| 20260509230718 | 32 | 210 | 3.2 | 4.8 | 0.00 | 0.05 | 0.05 | 43 | 1007.8 |
| 20260509230215 | 32 | 231 | 0.0 | 3.2 | 0.00 | 0.05 | 0.05 | 43 | 1007.6 |
| 20260509225710 | 33 | 140 | 3.2 | 4.8 | 0.00 | 0.05 | 0.05 | 43 | 1007.5 |
| 20260509225206 | 33 | 24 | 1.6 | 4.8 | 0.00 | 0.05 | 0.05 | 43 | 1007.8 |
| 20260509224702 | 33 | 196 | 1.6 | 3.2 | 0.00 | 0.05 | 0.05 | 42 | 1007.6 |
| 20260509224159 | 33 | 232 | 0.0 | 3.2 | 0.00 | 0.05 | 0.05 | 42 | 1007.6 |
| 20260509223656 | 33 | 95 | 0.0 | 3.2 | 0.00 | 0.05 | 0.05 | 43 | 1007.7 |
| 20260509223153 | 33 | 61 | 3.2 | 3.2 | 0.00 | 0.05 | 0.05 | 44 | 1007.7 |
| 20260509222650 | 33 | 209 | 3.2 | 4.8 | 0.00 | 0.05 | 0.05 | 44 | 1007.7 |
| 20260509222145 | 33 | 97 | 1.6 | 3.2 | 0.00 | 0.05 | 0.05 | 43 | 1007.7 |
| 20260509221641 | 33 | 47 | 1.6 | 3.2 | 0.00 | 0.05 | 0.05 | 44 | 1007.8 |
| 20260509221138 | 33 | 224 | 0.0 | 4.8 | 0.00 | 0.05 | 0.05 | 44 | 1007.5 |
| 20260509220634 | 33 | 163 | 1.6 | 3.2 | 0.00 | 0.05 | 0.05 | 44 | 1007.5 |
| 20260509220130 | 33 | 182 | 1.6 | 3.2 | 0.00 | 0.05 | 0.05 | 44 | 1007.7 |
| 20260509215626 | 33 | 249 | 0.0 | 4.8 | 0.00 | 0.05 | 0.05 | 44 | 1007.8 |
| 20260509215123 | 33 | 16 | 0.0 | 4.8 | 0.00 | 0.05 | 0.05 | 46 | 1007.8 |
| 20260509214620 | 32 | 167 | 3.2 | 4.8 | 0.00 | 0.05 | 0.05 | 45 | 1007.9 |
| 20260509214116 | 32 | 211 | 0.0 | 6.4 | 0.00 | 0.05 | 0.05 | 47 | 1007.8 |
| 20260509213613 | 32 | 188 | 4.8 | 9.7 | 0.00 | 0.05 | 0.05 | 47 | 1007.8 |
| 20260509213109 | 32 | 204 | 0.0 | 8.0 | 0.00 | 0.05 | 0.05 | 49 | 1007.9 |
| 20260509212607 | 33 | 223 | 3.2 | 9.7 | 0.00 | 0.05 | 0.05 | 48 | 1008.0 |
| 20260509212104 | 35 | 62 | 0.0 | 6.4 | 0.00 | 0.05 | 0.05 | 44 | 1008.0 |
| 20260509211559 | 35 | 192 | 0.0 | 6.4 | 0.00 | 0.05 | 0.05 | 39 | 1007.9 |
| 20260509211056 | 35 | 240 | 0.0 | 3.2 | 0.00 | 0.05 | 0.05 | 41 | 1008.1 |
| 20260509210553 | 35 | 257 | 0.0 | 4.8 | 0.00 | 0.05 | 0.05 | 39 | 1008.1 |
| 20260509210050 | 35 | 109 | 0.0 | 4.8 | 0.00 | 0.05 | 0.05 | 39 | 1008.1 |
| 20260509205549 | 34 | 205 | 1.6 | 6.4 | 0.00 | 0.05 | 0.05 | 39 | 1008.0 |
| 20260509205045 | 35 | 150 | 3.2 | 3.2 | 0.00 | 0.05 | 0.05 | 39 | 1008.1 |
| 20260509204542 | 35 | 195 | 3.2 | 3.2 | 0.00 | 0.05 | 0.05 | 39 | 1008.1 |
| 20260509204038 | 34 | 65 | 3.2 | 3.2 | 0.00 | 0.05 | 0.05 | 41 | 1008.4 |
| 20260509203533 | 33 | 180 | 1.6 | 3.2 | 0.00 | 0.05 | 0.05 | 44 | 1008.4 |
| 20260509203032 | 33 | 229 | 1.6 | 3.2 | 0.00 | 0.05 | 0.05 | 43 | 1008.7 |
| 20260509202527 | 32 | 232 | 3.2 | 6.4 | 0.00 | 0.05 | 0.05 | 45 | 1008.7 |
| 20260509202023 | 32 | 89 | 0.0 | 3.2 | 0.00 | 0.05 | 0.05 | 46 | 1008.9 |
| 20260509201518 | 33 | 247 | 0.0 | 3.2 | 0.00 | 0.05 | 0.05 | 44 | 1008.9 |
| 20260509201016 | 33 | 77 | 1.6 | 3.2 | 0.00 | 0.05 | 0.05 | 43 | 1008.9 |
| 20260509200515 | 33 | 138 | 3.2 | 4.8 | 0.00 | 0.05 | 0.05 | 43 | 1008.8 |
| 20260509200012 | 33 | 74 | 4.8 | 4.8 | 0.00 | 0.05 | 0.05 | 44 | 1008.8 |
| 20260509195508 | 33 | 323 | 1.6 | 6.4 | 0.00 | 0.05 | 0.05 | 45 | 1009.0 |
| 20260509195007 | 33 | 189 | 3.2 | 6.4 | 0.00 | 0.05 | 0.05 | 44 | 1008.8 |
| 20260509194503 | 33 | 100 | 0.0 | 6.4 | 0.00 | 0.05 | 0.05 | 43 | 1008.9 |
| 20260509194000 | 33 | 186 | 4.8 | 6.4 | 0.00 | 0.05 | 0.05 | 48 | 1008.9 |
| 20260509193500 | 33 | 13 | 3.2 | 3.2 | 0.00 | 0.05 | 0.05 | 48 | 1008.9 |
| 20260509192957 | 32 | 54 | 0.0 | 3.2 | 0.00 | 0.05 | 0.05 | 50 | 1009.0 |
| 20260509192453 | 32 | 196 | 0.0 | 3.2 | 0.00 | 0.05 | 0.05 | 52 | 1009.0 |
| 20260509191948 | 33 | 181 | 3.2 | 6.4 | 0.00 | 0.05 | 0.05 | 48 | 1009.1 |
| 20260509191443 | 33 | 139 | 1.6 | 6.4 | 0.00 | 0.05 | 0.05 | 49 | 1009.2 |
| 20260509190940 | 32 | 174 | 3.2 | 3.2 | 0.00 | 0.05 | 0.05 | 52 | 1009.4 |
| 20260509190437 | 32 | 331 | 1.6 | 4.8 | 0.00 | 0.05 | 0.05 | 52 | 1009.5 |
| 20260509185935 | 32 | 54 | 0.0 | 6.4 | 0.00 | 0.05 | 0.05 | 52 | 1009.5 |
| 20260509185432 | 32 | 243 | 3.2 | 3.2 | 0.00 | 0.05 | 0.05 | 52 | 1009.4 |
| 20260509184928 | 33 | 148 | 4.8 | 6.4 | 0.00 | 0.05 | 0.05 | 51 | 1009.8 |
| 20260509184426 | 33 | 292 | 3.2 | 6.4 | 0.00 | 0.05 | 0.05 | 52 | 1009.8 |
| 20260509183923 | 32 | 217 | 1.6 | 6.4 | 0.00 | 0.05 | 0.05 | 54 | 1009.9 |
| 20260509183417 | 32 | 165 | 4.8 | 6.4 | 0.00 | 0.05 | 0.05 | 52 | 1010.1 |
| 20260509182914 | 32 | 224 | 3.2 | 3.2 | 0.00 | 0.05 | 0.05 | 55 | 1010.0 |
| 20260509182410 | 32 | 298 | 1.6 | 4.8 | 0.00 | 0.05 | 0.05 | 55 | 1010.0 |
| 20260509181908 | 32 | 15 | 0.0 | 4.8 | 0.00 | 0.05 | 0.05 | 52 | 1010.2 |
| 20260509181405 | 32 | 306 | 0.0 | 3.2 | 0.00 | 0.05 | 0.05 | 53 | 1010.2 |
| 20260509180902 | 32 | 168 | 1.6 | 6.4 | 0.00 | 0.05 | 0.05 | 54 | 1010.3 |
| 20260509180358 | 32 | 309 | 3.2 | 4.8 | 0.00 | 0.05 | 0.05 | 53 | 1010.5 |
| 20260509175855 | 32 | 116 | 3.2 | 3.2 | 0.00 | 0.05 | 0.05 | 55 | 1010.5 |
| 20260509175351 | 31 | 214 | 1.6 | 6.4 | 0.00 | 0.05 | 0.05 | 57 | 1010.3 |
| 20260509174847 | 32 | 350 | 3.2 | 4.8 | 0.00 | 0.05 | 0.05 | 56 | 1010.4 |
| 20260509174344 | 32 | 72 | 0.0 | 3.2 | 0.00 | 0.05 | 0.05 | 55 | 1010.5 |
| 20260509173839 | 32 | 215 | 3.2 | 3.2 | 0.00 | 0.05 | 0.05 | 56 | 1010.7 |
| 20260509173335 | 31 | 32 | 0.0 | 3.2 | 0.00 | 0.05 | 0.05 | 56 | 1010.9 |
| 20260509172831 | 31 | 180 | 3.2 | 4.8 | 0.00 | 0.05 | 0.05 | 55 | 1011.0 |
| 20260509172328 | 31 | 207 | 1.6 | 4.8 | 0.00 | 0.05 | 0.05 | 58 | 1010.7 |
| 20260509171824 | 30 | 336 | 1.6 | 4.8 | 0.00 | 0.05 | 0.05 | 60 | 1010.8 |
| 20260509171320 | 30 | 219 | 3.2 | 4.8 | 0.00 | 0.05 | 0.05 | 62 | 1010.7 |
| 20260509170816 | 31 | 275 | 1.6 | 4.8 | 0.00 | 0.05 | 0.05 | 61 | 1010.7 |
| 20260509170312 | 30 | 176 | 1.6 | 3.2 | 0.00 | 0.05 | 0.05 | 62 | 1010.7 |
| 20260509165812 | 30 | 74 | 3.2 | 4.8 | 0.00 | 0.05 | 0.05 | 60 | 1010.8 |
| 20260509165307 | 30 | 349 | 0.0 | 3.2 | 0.00 | 0.05 | 0.05 | 62 | 1010.8 |
| 20260509164803 | 30 | 135 | 6.4 | 6.4 | 0.00 | 0.05 | 0.05 | 63 | 1010.8 |
| 20260509164259 | 29 | 159 | 3.2 | 4.8 | 0.00 | 0.05 | 0.05 | 64 | 1011.0 |
| 20260509163756 | 29 | 150 | 6.4 | 6.4 | 0.00 | 0.05 | 0.05 | 65 | 1010.9 |
| 20260509163252 | 29 | 300 | 3.2 | 4.8 | 0.00 | 0.05 | 0.05 | 68 | 1011.0 |
| 20260509162751 | 28 | 236 | 1.6 | 6.4 | 0.00 | 0.05 | 0.05 | 68 | 1011.0 |
| 20260509162245 | 28 | 207 | 1.6 | 6.4 | 0.00 | 0.05 | 0.05 | 69 | 1010.7 |
| 20260509161741 | 28 | 219 | 3.2 | 6.4 | 0.00 | 0.05 | 0.05 | 70 | 1011.0 |
| 20260509161237 | 28 | 202 | 4.8 | 6.4 | 0.00 | 0.05 | 0.05 | 70 | 1010.9 |
| 20260509160732 | 27 | 75 | 3.2 | 6.4 | 0.00 | 0.05 | 0.05 | 74 | 1011.1 |
| 20260509160229 | 27 | 183 | 3.2 | 6.4 | 0.00 | 0.05 | 0.05 | 75 | 1010.9 |
| 20260509155724 | 27 | 133 | 3.2 | 9.7 | 0.00 | 0.05 | 0.05 | 76 | 1011.2 |
| 20260509155221 | 26 | 186 | 4.8 | 8.0 | 0.00 | 0.05 | 0.05 | 79 | 1011.3 |
| 20260509154717 | 25 | 110 | 3.2 | 4.8 | 0.00 | 0.05 | 0.05 | 82 | 1011.3 |
| 20260509154214 | 25 | 127 | 3.2 | 14.5 | 0.00 | 0.05 | 0.05 | 83 | 1011.1 |
| 20260509153712 | 25 | 132 | 4.8 | 9.7 | 0.00 | 0.05 | 0.05 | 83 | 1011.2 |
| 20260509153208 | 25 | 164 | 4.8 | 12.9 | 0.00 | 0.05 | 0.05 | 84 | 1011.3 |
| 20260509152704 | 25 | 130 | 4.8 | 8.0 | 0.00 | 0.05 | 0.05 | 85 | 1011.0 |
| 20260509152200 | 25 | 126 | 3.2 | 8.0 | 0.00 | 0.05 | 0.05 | 85 | 1011.2 |
| 20260509151657 | 25 | 144 | 8.0 | 8.0 | 0.00 | 0.05 | 0.05 | 86 | 1011.1 |
| 20260509151154 | 25 | 139 | 4.8 | 9.7 | 0.00 | 0.05 | 0.05 | 85 | 1010.9 |
| 20260509150652 | 25 | 136 | 3.2 | 4.8 | 0.00 | 0.05 | 0.05 | 85 | 1010.9 |
| 20260509150150 | 25 | 149 | 3.2 | 6.4 | 0.00 | 0.05 | 0.05 | 85 | 1010.9 |
| 20260509145646 | 25 | 183 | 3.2 | 8.0 | 0.00 | 0.05 | 0.05 | 85 | 1010.6 |
| 20260509145142 | 25 | 177 | 3.2 | 4.8 | 0.00 | 0.05 | 0.05 | 85 | 1010.9 |
| 20260509144638 | 25 | 142 | 4.8 | 8.0 | 0.00 | 0.05 | 0.05 | 84 | 1010.8 |
| 20260509144136 | 25 | 145 | 4.8 | 6.4 | 0.00 | 0.05 | 0.05 | 83 | 1010.9 |
| 20260509143633 | 26 | 139 | 3.2 | 9.7 | 0.00 | 0.05 | 0.05 | 81 | 1010.8 |
| 20260509143130 | 26 | 148 | 1.6 | 8.0 | 0.00 | 0.05 | 0.05 | 82 | 1010.3 |
| 20260509142625 | 26 | 104 | 1.6 | 6.4 | 0.00 | 0.05 | 0.05 | 83 | 1010.2 |
| 20260509142122 | 25 | 139 | 3.2 | 9.7 | 0.00 | 0.05 | 0.05 | 83 | 1010.2 |
| 20260509141618 | 26 | 129 | 6.4 | 8.0 | 0.00 | 0.05 | 0.05 | 84 | 1010.1 |
| 20260509141115 | 26 | 167 | 3.2 | 8.0 | 0.00 | 0.05 | 0.05 | 83 | 1010.0 |
| 20260509140612 | 25 | 114 | 3.2 | 8.0 | 0.00 | 0.05 | 0.05 | 84 | 1009.9 |
| 20260509140110 | 25 | 135 | 4.8 | 9.7 | 0.00 | 0.05 | 0.05 | 86 | 1009.8 |
| 20260509135607 | 24 | 124 | 4.8 | 4.8 | 0.00 | 0.05 | 0.05 | 88 | 1009.9 |
| 20260509135105 | 24 | 124 | 6.4 | 6.4 | 0.00 | 0.05 | 0.05 | 90 | 1009.8 |
| 20260509134601 | 23 | 230 | 3.2 | 9.7 | 0.00 | 0.05 | 0.05 | 91 | 1010.0 |
| 20260509134058 | 23 | 198 | 1.6 | 8.0 | 0.00 | 0.05 | 0.05 | 92 | 1009.8 |
| 20260509133555 | 23 | 138 | 6.4 | 8.0 | 0.00 | 0.05 | 0.05 | 93 | 1010.1 |
| 20260509133053 | 23 | 183 | 3.2 | 8.0 | 0.00 | 0.05 | 0.05 | 95 | 1010.1 |
| 20260509132551 | 23 | 133 | 4.8 | 6.4 | 0.00 | 0.05 | 0.05 | 96 | 1010.2 |
| 20260509132049 | 22 | 150 | 3.2 | 3.2 | 0.00 | 0.05 | 0.05 | 97 | 1010.7 |
| 20260509131545 | 22 | 135 | 1.6 | 3.2 | 0.00 | 0.05 | 0.05 | 97 | 1010.6 |
| 20260509131042 | 22 | 114 | 1.6 | 4.8 | 0.00 | 0.05 | 0.05 | 97 | 1010.7 |
| 20260509130537 | 22 | 140 | 1.6 | 3.2 | 0.00 | 0.05 | 0.05 | 97 | 1010.9 |
| 20260509130035 | 22 | 80 | 3.2 | 3.2 | 0.00 | 0.05 | 0.05 | 97 | 1011.0 |
| 20260509125531 | 22 | 81 | 0.0 | 3.2 | 0.00 | 0.05 | 0.05 | 97 | 1011.0 |
| 20260509125027 | 22 | 104 | 0.0 | 3.2 | 0.00 | 0.05 | 0.05 | 97 | 1010.8 |
| 20260509124524 | 22 | 154 | 3.2 | 4.8 | 0.00 | 0.05 | 0.05 | 97 | 1010.7 |
| 20260509124022 | 22 | 107 | 3.2 | 3.2 | 0.05 | 0.05 | 0.05 | 97 | 1010.6 |
| 20260509123520 | 22 | 106 | 3.2 | 3.2 | 0.05 | 0.05 | 0.05 | 97 | 1010.8 |
| 20260509123015 | 22 | 97 | 1.6 | 3.2 | 0.00 | 0.03 | 0.03 | 97 | 1010.3 |
| 20260509122512 | 22 | 143 | 3.2 | 3.2 | 0.00 | 0.03 | 0.03 | 97 | 1010.2 |
| 20260509122009 | 22 | 76 | 0.0 | 3.2 | 0.00 | 0.03 | 0.03 | 97 | 1010.2 |
| 20260509121505 | 22 | 127 | 1.6 | 3.2 | 0.00 | 0.03 | 0.03 | 97 | 1010.5 |
| 20260509121004 | 22 | 119 | 3.2 | 3.2 | 0.00 | 0.03 | 0.03 | 97 | 1010.3 |
| 20260509120501 | 22 | 116 | 0.0 | 3.2 | 0.00 | 0.03 | 0.03 | 97 | 1010.2 |
| 20260509115959 | 22 | 89 | 0.0 | 3.2 | 0.00 | 0.03 | 0.03 | 97 | 1010.5 |
| 20260509115456 | 22 | 92 | 1.6 | 3.2 | 0.00 | 0.03 | 0.03 | 97 | 1010.7 |
| 20260509114954 | 22 | 133 | 3.2 | 3.2 | 0.00 | 0.03 | 0.03 | 97 | 1010.9 |
| 20260509114452 | 22 | 163 | 0.0 | 3.2 | 0.00 | 0.03 | 0.03 | 97 | 1010.9 |
| 20260509113951 | 22 | 95 | 0.0 | 3.2 | 0.00 | 0.03 | 0.03 | 97 | 1010.5 |
| 20260509113448 | 22 | 99 | 1.6 | 3.2 | 0.00 | 0.03 | 0.03 | 97 | 1010.6 |
| 20260509112944 | 22 | 113 | 3.2 | 3.2 | 0.00 | 0.03 | 0.03 | 97 | 1010.8 |
| 20260509112442 | 22 | 104 | 1.6 | 3.2 | 0.00 | 0.03 | 0.03 | 97 | 1011.1 |
| 20260509111938 | 22 | 116 | 1.6 | 1.6 | 0.00 | 0.03 | 0.03 | 97 | 1011.4 |
| 20260509111436 | 22 | 79 | 0.0 | 1.6 | 0.00 | 0.03 | 0.03 | 97 | 1011.3 |
| 20260509110933 | 22 | 113 | 1.6 | 3.2 | 0.00 | 0.03 | 0.03 | 97 | 1011.5 |
| 20260509110429 | 22 | 63 | 0.0 | 1.6 | 0.00 | 0.03 | 0.03 | 97 | 1011.4 |
| 20260509105927 | 22 | 100 | 1.6 | 3.2 | 0.00 | 0.03 | 0.03 | 97 | 1011.5 |
| 20260509105426 | 22 | 125 | 1.6 | 3.2 | 0.00 | 0.03 | 0.03 | 97 | 1011.6 |
| 20260509104922 | 22 | 117 | 3.2 | 3.2 | 0.00 | 0.03 | 0.03 | 97 | 1011.5 |
| 20260509104419 | 22 | 117 | 0.0 | 1.6 | 0.00 | 0.03 | 0.03 | 97 | 1011.5 |
| 20260509103916 | 22 | 142 | 0.0 | 3.2 | 0.00 | 0.03 | 0.03 | 96 | 1011.5 |
| 20260509103413 | 22 | 117 | 0.0 | 3.2 | 0.00 | 0.03 | 0.03 | 96 | 1011.4 |
| 20260509102912 | 22 | 141 | 0.0 | 3.2 | 0.00 | 0.03 | 0.03 | 96 | 1011.5 |
| 20260509102409 | 22 | 122 | 3.2 | 4.8 | 0.00 | 0.03 | 0.03 | 96 | 1011.5 |
| 20260509101905 | 22 | 111 | 0.0 | 1.6 | 0.00 | 0.03 | 0.03 | 96 | 1011.3 |
| 20260509101401 | 22 | 115 | 1.6 | 3.2 | 0.00 | 0.03 | 0.03 | 96 | 1011.2 |
| 20260509100859 | 22 | 151 | 0.0 | 3.2 | 0.00 | 0.03 | 0.03 | 96 | 1011.1 |
| 20260509100356 | 22 | 50 | 0.0 | 1.6 | 0.00 | 0.03 | 0.03 | 96 | 1010.8 |
| 20260509095852 | 22 | 79 | 0.0 | 3.2 | 0.00 | 0.03 | 0.03 | 96 | 1010.3 |
| 20260509095350 | 22 | 65 | 1.6 | 1.6 | 0.00 | 0.03 | 0.03 | 96 | 1010.3 |
| 20260509094847 | 22 | 103 | 0.0 | 1.6 | 0.00 | 0.03 | 0.03 | 96 | 1010.3 |
| 20260509094343 | 22 | 107 | 0.0 | 3.2 | 0.00 | 0.03 | 0.03 | 96 | 1010.0 |
| 20260509093841 | 22 | 112 | 1.6 | 3.2 | 0.00 | 0.03 | 0.03 | 96 | 1010.1 |
| 20260509093338 | 22 | 84 | 1.6 | 3.2 | 0.00 | 0.03 | 0.03 | 96 | 1010.1 |
| 20260509092837 | 22 | 130 | 1.6 | 3.2 | 0.00 | 0.03 | 0.03 | 96 | 1010.1 |
| 20260509092334 | 22 | 94 | 0.0 | 1.6 | 0.00 | 0.03 | 0.03 | 96 | 1010.0 |
| 20260509091832 | 22 | 87 | 1.6 | 3.2 | 0.00 | 0.03 | 0.03 | 96 | 1010.0 |
| 20260509091328 | 22 | 114 | 1.6 | 3.2 | 0.00 | 0.03 | 0.03 | 96 | 1010.1 |
| 20260509090826 | 22 | 108 | 0.0 | 3.2 | 0.00 | 0.03 | 0.03 | 96 | 1009.9 |
| 20260509090323 | 22 | 111 | 0.0 | 3.2 | 0.00 | 0.03 | 0.03 | 95 | 1009.9 |
| 20260509085820 | 22 | 116 | 0.0 | 3.2 | 0.05 | 0.03 | 0.03 | 95 | 1009.9 |
| 20260509085318 | 22 | 86 | 1.6 | 3.2 | 0.05 | 0.03 | 0.03 | 95 | 1009.6 |
| 20260509084814 | 22 | 118 | 1.6 | 1.6 | 0.05 | 0.03 | 0.03 | 95 | 1010.0 |
| 20260509084311 | 22 | 112 | 0.0 | 1.6 | 0.05 | 0.00 | 0.00 | 95 | 1010.2 |
| 20260509083809 | 22 | 122 | 0.0 | 3.2 | 0.05 | 0.00 | 0.00 | 95 | 1010.2 |
| 20260509083305 | 22 | 119 | 0.0 | 1.6 | 0.00 | 0.00 | 0.00 | 95 | 1010.3 |
| 20260509082802 | 22 | 128 | 1.6 | 3.2 | 0.00 | 0.00 | 0.00 | 95 | 1010.3 |
| 20260509082258 | 22 | 117 | 0.0 | 1.6 | 0.00 | 0.00 | 0.00 | 94 | 1010.3 |
| 20260509081755 | 22 | 135 | 0.0 | 3.2 | 0.00 | 0.00 | 0.00 | 94 | 1010.4 |
| 20260509081253 | 22 | 126 | 1.6 | 3.2 | 0.00 | 0.00 | 0.00 | 94 | 1010.4 |
| 20260509080751 | 22 | 139 | 0.0 | 3.2 | 0.00 | 0.00 | 0.00 | 93 | 1010.4 |
| 20260509080248 | 22 | 103 | 1.6 | 3.2 | 0.00 | 0.00 | 0.00 | 93 | 1010.4 |
| 20260509075747 | 22 | 129 | 0.0 | 1.6 | 0.00 | 0.00 | 0.00 | 93 | 1010.3 |
| 20260509075244 | 22 | 149 | 0.0 | 0.0 | 0.00 | 0.00 | 0.00 | 92 | 1010.4 |
| 20260509074740 | 22 | 122 | 0.0 | 1.6 | 0.00 | 0.00 | 0.00 | 92 | 1010.5 |
| 20260509074238 | 22 | 128 | 0.0 | 1.6 | 0.00 | 0.00 | 0.00 | 92 | 1010.3 |
| 20260509073734 | 22 | 117 | 0.0 | 3.2 | 0.00 | 0.00 | 0.00 | 91 | 1010.3 |
| 20260509073231 | 22 | 157 | 0.0 | 1.6 | 0.00 | 0.00 | 0.00 | 91 | 1010.3 |
| 20260509072727 | 22 | 60 | 0.0 | 1.6 | 0.00 | 0.00 | 0.00 | 91 | 1010.1 |
| 20260509072224 | 22 | 37 | 0.0 | 1.6 | 0.00 | 0.00 | 0.00 | 91 | 1010.3 |
| 20260509071721 | 22 | 60 | 0.0 | 1.6 | 0.00 | 0.00 | 0.00 | 91 | 1010.5 |
| 20260509071218 | 22 | 143 | 0.0 | 1.6 | 0.00 | 0.00 | 0.00 | 91 | 1010.5 |
| 20260509070715 | 22 | 53 | 0.0 | 3.2 | 0.00 | 0.00 | 0.00 | 91 | 1010.3 |
| 20260509070211 | 22 | 37 | 0.0 | 1.6 | 0.00 | 0.00 | 0.00 | 91 | 1010.5 |
| 20260509065708 | 22 | 64 | 0.0 | 1.6 | 0.00 | 0.00 | 0.00 | 90 | 1010.5 |
| 20260509065203 | 22 | 50 | 0.0 | 1.6 | 0.00 | 0.00 | 0.00 | 90 | 1010.5 |
| 20260509064700 | 22 | 74 | 1.6 | 3.2 | 0.00 | 0.00 | 0.00 | 90 | 1010.5 |
| 20260509064158 | 22 | 107 | 1.6 | 3.2 | 0.00 | 0.00 | 0.00 | 90 | 1010.2 |
| 20260509063655 | 22 | 44 | 1.6 | 1.6 | 0.00 | 0.00 | 0.00 | 90 | 1010.4 |
| 20260509063152 | 22 | 53 | 3.2 | 3.2 | 0.00 | 0.00 | 0.00 | 90 | 1010.0 |
| 20260509062649 | 22 | 50 | 0.0 | 3.2 | 0.00 | 0.00 | 0.00 | 90 | 1010.3 |
| 20260509062146 | 22 | 73 | 0.0 | 1.6 | 0.00 | 0.00 | 0.00 | 90 | 1010.2 |
| 20260509061642 | 22 | 113 | 0.0 | 3.2 | 0.00 | 0.00 | 0.00 | 90 | 1010.0 |
| 20260509061140 | 22 | 129 | 1.6 | 3.2 | 0.00 | 0.00 | 0.00 | 90 | 1010.0 |
| 20260509060638 | 22 | 173 | 0.0 | 4.8 | 0.00 | 0.00 | 0.00 | 90 | 1010.0 |
| 20260509060133 | 22 | 120 | 3.2 | 4.8 | 0.00 | 0.00 | 0.00 | 90 | 1009.9 |
| 20260509055629 | 22 | 129 | 3.2 | 4.8 | 0.00 | 0.00 | 0.00 | 90 | 1010.0 |
| 20260509055125 | 22 | 86 | 1.6 | 4.8 | 0.00 | 0.00 | 0.00 | 90 | 1009.8 |
| 20260509054622 | 22 | 120 | 1.6 | 6.4 | 0.00 | 0.00 | 0.00 | 90 | 1009.9 |
| 20260509054120 | 22 | 127 | 3.2 | 4.8 | 0.00 | 0.00 | 0.00 | 90 | 1009.9 |
| 20260509053618 | 22 | 235 | 3.2 | 6.4 | 0.00 | 0.00 | 0.00 | 90 | 1009.9 |
| 20260509053115 | 22 | 130 | 6.4 | 9.7 | 0.00 | 0.00 | 0.00 | 90 | 1010.0 |
| 20260509052613 | 22 | 149 | 6.4 | 16.1 | 0.00 | 0.00 | 0.00 | 91 | 1009.8 |
| 20260509052110 | 22 | 135 | 3.2 | 6.4 | 0.00 | 0.00 | 0.00 | 90 | 1009.7 |
| 20260509051608 | 22 | 131 | 3.2 | 4.8 | 0.00 | 0.00 | 0.00 | 90 | 1009.5 |
| 20260509051105 | 22 | 106 | 4.8 | 12.9 | 0.00 | 0.00 | 0.00 | 90 | 1009.4 |
| 20260509050602 | 22 | 153 | 3.2 | 9.7 | 0.00 | 0.00 | 0.00 | 90 | 1009.3 |
| 20260509050058 | 22 | 89 | 0.0 | 4.8 | 0.00 | 0.00 | 0.00 | 90 | 1009.2 |
| 20260509045556 | 22 | 67 | 1.6 | 4.8 | 0.00 | 0.00 | 0.00 | 89 | 1009.2 |